| time (UTC) | temp C | wind direction | speed KPH | gust KPH | rain 1hr cm | rain 24hr cm | rain mn cm | humidity % | barometer mb |
| 20260506013055 | 13 | 0 | 3.2 | 11.3 | 0.00 | 0.05 | 0.05 | 52 | 1011.3 |
| 20260506011559 | 13 | 0 | 3.2 | 9.7 | 0.00 | 0.05 | 0.05 | 52 | 1011.2 |
| 20260506010055 | 13 | 315 | 3.2 | 12.9 | 0.00 | 0.05 | 0.05 | 51 | 1011.2 |
| 20260506004558 | 13 | 258 | 0.0 | 12.9 | 0.00 | 0.05 | 0.05 | 53 | 1011.2 |
| 20260506003056 | 13 | 0 | 0.0 | 6.4 | 0.00 | 0.05 | 0.05 | 54 | 1011.3 |
| 20260506001606 | 14 | 157 | 3.2 | 9.7 | 0.00 | 0.05 | 0.05 | 52 | 1011.0 |
| 20260506000122 | 14 | 76 | 1.6 | 9.7 | 0.00 | 0.05 | 0.05 | 51 | 1011.0 |
| 20260505234601 | 16 | 340 | 1.6 | 4.8 | 0.00 | 0.05 | 0.05 | 46 | 1010.9 |
| 20260505233056 | 15 | 73 | 3.2 | 6.4 | 0.00 | 0.05 | 0.05 | 50 | 1010.9 |
| 20260505231559 | 15 | 265 | 3.2 | 8.0 | 0.00 | 0.05 | 0.05 | 51 | 1011.3 |
| 20260505230058 | 13 | 193 | 0.0 | 11.3 | 0.00 | 0.05 | 0.05 | 53 | 1011.3 |
| 20260505224555 | 13 | 69 | 6.4 | 17.7 | 0.05 | 0.05 | 0.05 | 63 | 1011.3 |
| 20260505223059 | 13 | 101 | 4.8 | 14.5 | 0.05 | 0.05 | 0.05 | 67 | 1011.6 |
| 20260505221601 | 13 | 222 | 4.8 | 19.3 | 0.05 | 0.05 | 0.05 | 63 | 1011.7 |
| 20260505220107 | 12 | 304 | 1.6 | 14.5 | 0.05 | 0.05 | 0.05 | 66 | 1012.2 |
| 20260505214605 | 14 | 225 | 4.8 | 12.9 | 0.00 | 0.00 | 0.00 | 55 | 1012.0 |
| 20260505213056 | 15 | 244 | 4.8 | 8.0 | 0.00 | 0.00 | 0.00 | 48 | 1011.9 |
| 20260505211631 | 14 | 260 | 4.8 | 12.9 | 0.00 | 0.00 | 0.00 | 50 | 1012.1 |
| 20260505210055 | 15 | 230 | 6.4 | 11.3 | 0.00 | 0.00 | 0.00 | 51 | 1012.0 |
| 20260505204605 | 14 | 0 | 3.2 | 14.5 | 0.00 | 0.00 | 0.00 | 52 | 1012.1 |
| 20260505203058 | 14 | 236 | 3.2 | 17.7 | 0.00 | 0.00 | 0.00 | 53 | 1012.5 |
| 20260505201555 | 13 | 138 | 3.2 | 11.3 | 0.00 | 0.00 | 0.00 | 57 | 1012.4 |
| 20260505200055 | 13 | 347 | 3.2 | 11.3 | 0.00 | 0.00 | 0.00 | 58 | 1012.9 |
| 20260505194554 | 13 | 192 | 3.2 | 11.3 | 0.00 | 0.00 | 0.00 | 61 | 1012.9 |
| 20260505193056 | 13 | 142 | 3.2 | 9.7 | 0.00 | 0.00 | 0.00 | 62 | 1013.0 |
| 20260505191604 | 12 | 202 | 3.2 | 14.5 | 0.00 | 0.00 | 0.00 | 69 | 1013.2 |
| 20260505190114 | 12 | 227 | 3.2 | 14.5 | 0.00 | 0.00 | 0.00 | 69 | 1013.1 |
| 20260505184557 | 13 | 201 | 8.0 | 19.3 | 0.00 | 0.00 | 0.00 | 63 | 1013.3 |
| 20260505183054 | 14 | 168 | 4.8 | 19.3 | 0.00 | 0.00 | 0.00 | 53 | 1012.9 |
| 20260505181640 | 15 | 242 | 3.2 | 17.7 | 0.00 | 0.00 | 0.00 | 48 | 1012.9 |
| 20260505180105 | 16 | 285 | 3.2 | 12.9 | 0.00 | 0.00 | 0.00 | 43 | 1012.7 |
| 20260505174556 | 15 | 232 | 4.8 | 9.7 | 0.00 | 0.00 | 0.00 | 47 | 1012.7 |
| 20260505173055 | 13 | 10 | 3.2 | 12.9 | 0.00 | 0.00 | 0.00 | 47 | 1012.8 |
| 20260505171601 | 13 | 47 | 4.8 | 12.9 | 0.00 | 0.00 | 0.00 | 47 | 1013.0 |
| 20260505170057 | 12 | 233 | 3.2 | 9.7 | 0.00 | 0.00 | 0.00 | 49 | 1013.4 |
| 20260505164558 | 12 | 256 | 3.2 | 9.7 | 0.00 | 0.00 | 0.00 | 51 | 1012.9 |
| 20260505163058 | 11 | 305 | 6.4 | 14.5 | 0.00 | 0.00 | 0.00 | 53 | 1013.3 |
| 20260505161557 | 10 | 331 | 6.4 | 17.7 | 0.00 | 0.00 | 0.00 | 57 | 1013.6 |
| 20260505153058 | 11 | 309 | 9.7 | 20.9 | 0.00 | 0.00 | 0.00 | 59 | 1014.0 |
| 20260505151602 | 11 | 336 | 9.7 | 16.1 | 0.00 | 0.00 | 0.00 | 60 | 1014.2 |
| 20260505124554 | 12 | 0 | 0.0 | 0.0 | 0.00 | 0.00 | 0.00 | 45 | 1013.1 |
| 20260505123058 | 12 | 0 | 1.6 | 4.8 | 0.00 | 0.00 | 0.00 | 45 | 1013.4 |
| 20260505121559 | 12 | 0 | 0.0 | 0.0 | 0.00 | 0.00 | 0.00 | 44 | 1013.5 |
| 20260505120117 | 12 | 270 | 0.0 | 3.2 | 0.00 | 0.00 | 0.00 | 42 | 1013.3 |
| 20260505114558 | 12 | 0 | 0.0 | 0.0 | 0.00 | 0.00 | 0.00 | 42 | 1013.1 |
| 20260505113056 | 12 | 0 | 0.0 | 3.2 | 0.00 | 0.00 | 0.00 | 41 | 1013.0 |
| 20260505111557 | 12 | 0 | 1.6 | 6.4 | 0.00 | 0.00 | 0.00 | 40 | 1012.9 |
| 20260505110111 | 12 | 241 | 1.6 | 4.8 | 0.00 | 0.00 | 0.00 | 39 | 1013.2 |
| 20260505101602 | 13 | 0 | 0.0 | 3.2 | 0.00 | 0.00 | 0.00 | 36 | 1012.9 |
| 20260505100056 | 13 | 348 | 1.6 | 4.8 | 0.00 | 0.00 | 0.00 | 35 | 1012.8 |
| 20260505094554 | 13 | 281 | 0.0 | 3.2 | 0.00 | 0.00 | 0.00 | 34 | 1012.8 |
| 20260505093056 | 13 | 0 | 1.6 | 4.8 | 0.00 | 0.00 | 0.00 | 35 | 1012.8 |
| 20260505091559 | 13 | 0 | 1.6 | 6.4 | 0.00 | 0.00 | 0.00 | 36 | 1013.1 |
| 20260505090100 | 13 | 49 | 3.2 | 6.4 | 0.00 | 0.00 | 0.00 | 35 | 1013.3 |
| 20260505084603 | 13 | 277 | 4.8 | 11.3 | 0.00 | 0.00 | 0.00 | 35 | 1013.4 |
| 20260505083109 | 14 | 0 | 0.0 | 3.2 | 0.00 | 0.00 | 0.00 | 36 | 1013.8 |
| 20260505081556 | 14 | 301 | 0.0 | 4.8 | 0.00 | 0.00 | 0.00 | 35 | 1013.7 |
| 20260505080104 | 14 | 0 | 0.0 | 6.4 | 0.00 | 0.00 | 0.00 | 35 | 1013.7 |
| 20260505074556 | 15 | 267 | 6.4 | 14.5 | 0.00 | 0.00 | 0.00 | 34 | 1013.8 |
| 20260505073101 | 15 | 306 | 3.2 | 11.3 | 0.00 | 0.00 | 0.00 | 33 | 1014.0 |
| 20260505071556 | 15 | 224 | 1.6 | 6.4 | 0.00 | 0.00 | 0.00 | 32 | 1013.9 |
| 20260505070100 | 15 | 245 | 3.2 | 6.4 | 0.00 | 0.00 | 0.00 | 31 | 1013.7 |
| 20260505064639 | 15 | 0 | 0.0 | 11.3 | 0.00 | 0.00 | 0.00 | 30 | 1013.4 |
| 20260505063058 | 16 | 269 | 1.6 | 11.3 | 0.00 | 0.00 | 0.00 | 29 | 1013.3 |
| 20260505061555 | 16 | 255 | 1.6 | 6.4 | 0.00 | 0.00 | 0.00 | 29 | 1013.6 |
| 20260505060101 | 16 | 214 | 3.2 | 17.7 | 0.00 | 0.00 | 0.00 | 28 | 1013.4 |
| 20260505054602 | 16 | 256 | 6.4 | 20.9 | 0.00 | 0.00 | 0.00 | 27 | 1013.3 |
| 20260505053100 | 16 | 274 | 3.2 | 11.3 | 0.00 | 0.00 | 0.00 | 27 | 1013.2 |
| 20260505051558 | 17 | 192 | 3.2 | 14.5 | 0.00 | 0.00 | 0.00 | 27 | 1013.2 |
| 20260505050106 | 16 | 242 | 1.6 | 6.4 | 0.00 | 0.00 | 0.00 | 28 | 1013.1 |
| 20260505041604 | 17 | 0 | 0.0 | 8.0 | 0.00 | 0.00 | 0.00 | 27 | 1013.2 |
| 20260505034610 | 18 | 242 | 1.6 | 6.4 | 0.00 | 0.00 | 0.00 | 25 | 1013.1 |
| 20260505033058 | 18 | 320 | 1.6 | 6.4 | 0.00 | 0.00 | 0.00 | 25 | 1012.9 |
| 20260505031558 | 18 | 309 | 6.4 | 19.3 | 0.00 | 0.00 | 0.00 | 24 | 1012.8 |
| 20260505030104 | 18 | 284 | 4.8 | 14.5 | 0.00 | 0.00 | 0.00 | 24 | 1012.7 |
| 20260505024610 | 19 | 274 | 6.4 | 19.3 | 0.00 | 0.00 | 0.00 | 23 | 1012.4 |
| 20260505023056 | 19 | 59 | 11.3 | 19.3 | 0.00 | 0.00 | 0.00 | 22 | 1012.2 |
| 20260505021555 | 20 | 250 | 8.0 | 20.9 | 0.00 | 0.00 | 0.00 | 22 | 1012.0 |
| 20260505020106 | 20 | 258 | 4.8 | 17.7 | 0.00 | 0.00 | 0.00 | 22 | 1011.8 |
| 20260505014553 | 20 | 309 | 4.8 | 19.3 | 0.00 | 0.00 | 0.00 | 22 | 1011.7 |